Waarnemingen

Advertentie
Mijn weer
J6-A, Nederland (6211): temperatuur & dauwpunt: 15.01.2017 11:00:00 - 21.01.2017 11:00:00 (CET)J6-A, Nederland (6211): windsnelheid & windstoten: 15.01.2017 11:00:00 - 21.01.2017 11:00:00 (CET)J6-A, Nederland (6211): windrichting: 15.01.2017 11:00:00 - 21.01.2017 11:00:00 (CET)J6-A, Nederland (6211): luchtdruk: 15.01.2017 11:00:00 - 21.01.2017 11:00:00 (CET)J6-A, Nederland (6211): zicht: 15.01.2017 11:00:00 - 21.01.2017 11:00:00 (CET)
Datum & Tijd tt [°C] td [°C] ff [km/u] ff [kn] fx [km/u] fx [kn] dd ppp [hPa] vv [km]
21.01.2017 11:00:00 5,6 3,1 24 13 32 18 O 1031,7 10
21.01.2017 10:00:00 5,4 2,4 29 16 32 18 OZO 1032,1 10
21.01.2017 09:00:00 5,9 3,2 18 10 29 16 O 1032,0 26
21.01.2017 08:00:00 5,9 2,8 22 12 29 16 O 1031,9 10
21.01.2017 07:00:00 6,2 3,2 18 10 29 16 O 1032,1 35
21.01.2017 06:00:00 6,0 2,6 21 11 25 14 ONO 1032,4 10
21.01.2017 05:00:00 6,2 2,5 18 10 25 14 O 1032,8 10
21.01.2017 04:00:00 6,2 2,9 21 11 29 16 - 1033,1 10
21.01.2017 03:00:00 6,0 2,5 18 10 25 14 - 1033,5 10
21.01.2017 02:00:00 5,9 2,5 18 10 32 18 - 1033,7 10
21.01.2017 01:00:00 6,1 2,7 21 11 29 16 O 1034,2 10
21.01.2017 00:00:00 6,4 2,9 22 12 29 16 NO 1034,5 10
20.01.2017 23:00:00 6,5 3,2 22 12 29 16 NO 1034,8 10
20.01.2017 22:00:00 6,9 3,3 13 7 29 16 - 1035,0 10
20.01.2017 21:00:00 6,9 3,2 18 10 29 16 - 1035,0 10
20.01.2017 20:00:00 6,9 3,2 9 5 29 16 NNO 1035,1 10
20.01.2017 19:00:00 6,9 3,4 5 3 25 14 - 1035,1 10
20.01.2017 18:00:00 7,2 3,4 8 4 25 14 - 1035,2 10
20.01.2017 17:00:00 6,8 3,4 5 3 14 8 N 1035,4 10
20.01.2017 16:00:00 6,6 3,2 8 4 11 6 - 1035,5 10
20.01.2017 15:00:00 6,5 3,0 4 2 14 8 - 1035,5 10
20.01.2017 14:00:00 6,6 3,2 4 2 11 6 - 1035,9 10
20.01.2017 13:00:00 6,6 3,2 5 3 11 6 NW 1036,2 10
20.01.2017 12:00:00 6,6 3,4 4 2 11 6 - 1036,7 10
20.01.2017 11:00:00 6,5 3,2 9 5 11 6 ZW 1036,7 10
20.01.2017 10:00:00 6,5 3,4 4 2 11 6 WZW 1036,7 10
20.01.2017 09:00:00 6,4 3,3 8 4 11 6 W 1036,4 10
20.01.2017 08:00:00 6,4 3,5 9 5 14 8 WNW 1036,2 10
20.01.2017 07:00:00 6,5 3,6 9 5 14 8 W 1036,2 10
20.01.2017 06:00:00 6,6 3,6 8 4 14 8 W 1036,2 10
20.01.2017 05:00:00 6,4 4,4 11 6 14 8 ZW 1036,4 10
20.01.2017 04:00:00 6,5 4,1 15 8 18 10 ZW 1036,6 10
20.01.2017 03:00:00 6,5 4,0 15 8 22 12 ZW 1036,6 10
20.01.2017 02:00:00 6,3 3,5 21 11 22 12 ZZW 1036,7 10
20.01.2017 01:00:00 6,4 5,2 13 7 14 8 ZW 1037,1 4,9
20.01.2017 00:00:00 6,4 5,7 15 8 14 8 ZW 1037,3 8
19.01.2017 23:00:00 6,4 5,5 16 9 18 10 ZZW 1037,3 7
19.01.2017 22:00:00 6,4 5,7 5 3 7 4 W 1037,5 10
19.01.2017 21:00:00 6,5 6,0 8 4 11 6 WNW 1037,2 8
19.01.2017 20:00:00 6,5 6,1 13 7 14 8 ZZW 1037,1 3,7
19.01.2017 19:00:00 6,5 5,9 11 6 14 8 ZZW 1036,9 4,8
19.01.2017 18:00:00 6,5 5,7 8 4 14 8 WZW 1037,1 7
19.01.2017 17:00:00 6,5 6,1 11 6 14 8 ZW 1036,9 2,7
19.01.2017 16:00:00 6,6 6,2 11 6 18 10 ZW 1037,0 2,6
19.01.2017 15:00:00 6,6 6,3 16 9 18 10 ZW 1036,7 2,3
19.01.2017 14:00:00 6,4 6,2 16 9 18 10 ZW 1037,1 1,8
19.01.2017 13:00:00 6,4 6,0 16 9 22 12 ZW 1037,6 -
19.01.2017 12:00:00 6,3 5,8 18 10 18 10 ZW 1037,9 -
19.01.2017 11:00:00 6,3 5,8 13 7 18 10 ZZW 1038,2 3,9
19.01.2017 10:00:00 6,2 5,7 16 9 18 10 ZW 1038,1 -
19.01.2017 09:00:00 6,2 5,9 14 8 18 10 ZZW 1037,7 -
19.01.2017 08:00:00 6,1 5,9 14 8 22 12 ZZW 1037,2 -
19.01.2017 07:00:00 5,9 5,6 14 8 18 10 ZZW 1036,8 2,8
19.01.2017 06:00:00 5,8 5,4 14 8 18 10 ZZW 1037,0 3,5
19.01.2017 05:00:00 5,7 5,3 16 9 18 10 ZW 1037,3 3,0
19.01.2017 04:00:00 5,6 5,1 14 8 18 10 ZW 1037,4 4,9
19.01.2017 03:00:00 5,6 5,2 14 8 22 12 ZZW 1037,3 -
19.01.2017 02:00:00 5,3 4,8 14 8 18 10 ZZW 1037,7 2,7
19.01.2017 01:00:00 5,3 4,6 18 10 22 12 ZW 1037,6 3,2
19.01.2017 00:00:00 5,5 4,3 21 11 22 12 ZW 1037,7 8
18.01.2017 23:00:00 5,6 3,6 22 12 25 14 WZW 1037,8 10
18.01.2017 22:00:00 5,7 2,5 22 12 25 14 ZW 1037,6 10
18.01.2017 21:00:00 5,6 1,6 26 14 29 16 ZW 1037,9 10
18.01.2017 20:00:00 5,6 0,5 28 15 29 16 ZW 1037,9 10
18.01.2017 19:00:00 5,7 1,5 28 15 29 16 ZW 1037,8 10
18.01.2017 18:00:00 5,6 1,3 28 15 29 16 ZW 1037,8 10
18.01.2017 17:00:00 5,5 0,3 29 16 29 16 ZZW 1037,9 10
18.01.2017 16:00:00 5,5 0,8 29 16 32 18 ZZW 1037,9 10
18.01.2017 15:00:00 5,4 0,3 31 17 32 18 ZW 1037,8 10
18.01.2017 14:00:00 5,3 -1,3 29 16 32 18 ZW 1037,9 10
18.01.2017 13:00:00 5,1 -2,1 31 17 36 19 ZW 1038,2 10
18.01.2017 12:00:00 5,3 -3,9 37 20 40 21 ZW 1038,4 10
18.01.2017 11:00:00 5,2 -3,9 39 21 40 21 ZZW 1038,4 10
18.01.2017 10:00:00 5,1 -4,2 39 21 40 21 ZZW 1038,2 10
18.01.2017 09:00:00 5,1 -4,2 37 20 40 21 ZW 1037,9 10
18.01.2017 08:00:00 5,1 -2,9 37 20 40 21 ZZW 1037,4 10
18.01.2017 07:00:00 5,1 -3,6 35 19 36 19 ZZW 1037,1 10
18.01.2017 06:00:00 5,2 -3,4 37 20 40 21 ZZW 1037,0 10
18.01.2017 05:00:00 5,1 -2,8 39 21 40 21 ZZW 1037,3 10
18.01.2017 04:00:00 5,0 -1,7 37 20 40 21 ZZW 1037,4 10
18.01.2017 03:00:00 5,0 -1,5 31 17 32 18 ZZW 1037,7 10
18.01.2017 02:00:00 5,0 -2,3 31 17 32 18 ZZW 1037,8 10
18.01.2017 01:00:00 5,1 -1,7 31 17 32 18 ZZW 1037,8 10
18.01.2017 00:00:00 5,1 -1,0 34 18 36 19 ZZW 1037,6 10
17.01.2017 23:00:00 5,0 -0,8 34 18 32 18 ZZW 1037,7 10
17.01.2017 22:00:00 5,0 -1,3 29 16 32 18 ZZW 1037,6 10
17.01.2017 21:00:00 4,9 -0,8 28 15 29 16 ZZW 1037,6 10
17.01.2017 20:00:00 4,9 -0,4 28 15 29 16 ZZW 1037,4 10
17.01.2017 19:00:00 4,7 -1,8 26 14 29 16 ZZW 1037,2 10
17.01.2017 18:00:00 4,6 -2,3 22 12 25 14 ZZW 1037,2 10
17.01.2017 17:00:00 4,6 -1,5 26 14 25 14 Z 1037,0 10
17.01.2017 16:00:00 4,6 -2,6 22 12 22 12 Z 1036,9 10
17.01.2017 15:00:00 4,6 -3,2 22 12 22 12 ZZW 1037,0 10
17.01.2017 14:00:00 4,6 -2,6 22 12 25 14 ZZW 1037,1 10
17.01.2017 13:00:00 4,4 -2,8 22 12 25 14 ZZW 1037,1 10
17.01.2017 12:00:00 4,5 -2,3 22 12 25 14 Z 1037,4 10
17.01.2017 11:00:00 4,2 -3,4 21 11 22 12 Z 1037,1 10
17.01.2017 10:00:00 4,2 -3,7 18 10 - - Z 1036,5 50
17.01.2017 09:00:00 4,2 -3,7 21 11 25 14 Z 1036,2 10
17.01.2017 08:00:00 4,2 -4,1 22 12 22 12 Z 1035,5 10
17.01.2017 07:00:00 4,2 -5,4 18 10 - - Z 1035,2 10
17.01.2017 06:00:00 4,3 -3,9 16 9 18 10 Z 1034,9 10
17.01.2017 05:00:00 4,2 -5,8 18 10 22 12 Z 1034,9 10
17.01.2017 04:00:00 4,2 -5,4 16 9 - - Z 1034,5 10
17.01.2017 03:00:00 4,2 -4,2 18 10 22 12 Z 1034,2 10
17.01.2017 02:00:00 4,2 -5,1 16 9 18 10 ZZO 1033,9 10
17.01.2017 01:00:00 4,3 -4,8 16 9 18 10 ZZO 1033,8 10
17.01.2017 00:00:00 4,2 -2,0 18 10 22 12 ZZO 1033,3 10
16.01.2017 23:00:00 4,4 -2,5 18 10 22 12 ZO 1033,1 10
16.01.2017 22:00:00 4,5 -0,3 22 12 29 16 ZO 1032,6 10
16.01.2017 21:00:00 4,8 0,0 16 9 25 14 ZO 1032,1 10
16.01.2017 20:00:00 5,0 -0,2 18 10 25 14 ZO 1031,3 10
16.01.2017 19:00:00 5,1 -1,0 13 7 25 14 ZO 1030,6 10
16.01.2017 18:00:00 5,1 0,6 15 8 18 10 ZO 1029,9 10
16.01.2017 17:00:00 5,3 0,8 11 6 25 14 ONO 1029,6 10
16.01.2017 16:00:00 5,8 -1,5 9 5 29 16 - 1029,1 10
16.01.2017 15:00:00 5,9 -1,8 16 9 32 18 O 1028,7 10
16.01.2017 14:00:00 6,5 -1,3 22 12 29 16 ONO 1028,4 10
16.01.2017 13:00:00 5,7 -0,3 26 14 29 16 - 1028,8 10
16.01.2017 12:00:00 5,2 0,4 11 6 29 16 - 1028,6 10
16.01.2017 11:00:00 5,3 0,1 15 8 29 16 NNO 1028,1 10
16.01.2017 10:00:00 5,4 -0,9 21 11 29 16 NO 1027,8 10
16.01.2017 09:00:00 5,7 0,5 21 11 29 16 O 1027,3 10
16.01.2017 08:00:00 5,6 0,1 18 10 29 16 - 1026,9 10
16.01.2017 07:00:00 5,8 -1,3 22 12 25 14 - 1026,4 10
16.01.2017 06:00:00 5,7 -0,7 21 11 25 14 - 1026,0 10
16.01.2017 05:00:00 5,5 -0,6 21 11 25 14 NO 1025,8 10
16.01.2017 04:00:00 5,6 0,3 18 10 25 14 NNO 1025,8 10
16.01.2017 03:00:00 5,6 1,1 18 10 25 14 NO 1025,6 10
16.01.2017 02:00:00 5,7 0,1 13 7 25 14 NNO 1025,1 10
16.01.2017 01:00:00 5,7 1,4 21 11 25 14 NO 1025,1 10
16.01.2017 00:00:00 5,9 -0,3 16 9 25 14 - 1025,0 10
15.01.2017 23:00:00 5,9 1,2 16 9 25 14 - 1024,5 10
15.01.2017 22:00:00 5,7 1,2 9 5 25 14 N 1024,1 10
15.01.2017 21:00:00 5,3 1,6 9 5 14 8 NNW 1023,6 10
15.01.2017 20:00:00 5,2 1,4 4 2 7 4 N 1023,0 10
15.01.2017 19:00:00 5,2 1,0 4 2 25 14 - 1022,8 10
15.01.2017 18:00:00 5,5 2,2 8 4 18 10 - 1022,2 10
15.01.2017 17:00:00 4,8 2,0 11 6 18 10 - 1021,5 10
15.01.2017 16:00:00 4,8 1,8 11 6 18 10 ZZO 1021,0 10
15.01.2017 15:00:00 5,2 1,3 8 4 11 6 ZZO 1020,2 10
15.01.2017 14:00:00 4,8 1,0 4 2 11 6 - 1020,1 10
15.01.2017 13:00:00 4,7 0,8 2 1 11 6 - 1020,3 10
15.01.2017 12:00:00 4,8 0,1 5 3 11 6 N 1020,2 10
15.01.2017 11:00:00 4,7 0,7 8 4 14 8 - 1020,0 10

tt = temperatuur
td = dauwpunt
ff = windsnelheid
fx = windstoten
dd = windrichting
ppp = luchtdruk
vv = zicht

Weerstations in de omgeving